Time,TemperatureF,DewpointF,PressureIn,WindDirection,WindDirectionDegrees,WindSpeedMPH,WindSpeedGustMPH,Humidity,HourlyPrecipIn,Conditions,Clouds,dailyrainin,SoftwareType,DateUTC
2013-04-16 00:03:00,42.7,41.1,30.00,North,5,5.0,9.0,94,0.47,,SKC,0.00,VWS V12.07,2013-04-16 05:03:00,
2013-04-16 00:09:00,42.7,41.1,30.01,ENE,71,3.0,9.0,94,0.47,,SKC,0.00,VWS V12.07,2013-04-16 05:09:00,
2013-04-16 00:16:00,42.7,41.1,30.03,East,91,0.0,12.0,94,0.47,,SKC,0.00,VWS V12.07,2013-04-16 05:16:00,
2013-04-16 00:23:00,42.6,41.0,30.05,NNE,30,1.0,12.0,94,0.49,,SKC,0.03,VWS V12.07,2013-04-16 05:23:00,
2013-04-16 00:29:00,42.3,40.7,30.05,East,93,3.0,12.0,94,0.53,,SKC,0.07,VWS V12.07,2013-04-16 05:29:00,
2013-04-16 00:35:00,42.0,40.4,30.05,NNW,342,2.0,3.0,94,0.20,,SKC,0.10,VWS V12.07,2013-04-16 05:35:00,
2013-04-16 00:41:00,41.8,40.2,30.06,NNE,23,0.0,5.0,94,0.20,,SKC,0.11,VWS V12.07,2013-04-16 05:41:00,
2013-04-16 00:48:00,41.7,40.1,30.04,SE,142,1.0,7.0,94,0.22,,SKC,0.13,VWS V12.07,2013-04-16 05:48:00,
2013-04-16 00:54:00,41.7,40.1,30.05,NE,42,0.0,7.0,94,0.23,,SKC,0.13,VWS V12.07,2013-04-16 05:54:00,
2013-04-16 01:01:00,41.7,40.4,30.06,ESE,108,0.0,0.0,95,0.23,,SKC,0.13,VWS V12.07,2013-04-16 06:01:00,
2013-04-16 01:08:00,41.8,40.5,30.06,NE,36,3.0,5.0,95,0.13,,SKC,0.13,VWS V12.07,2013-04-16 06:08:00,
2013-04-16 01:14:00,41.9,40.6,30.05,NE,50,3.0,5.0,95,0.13,,SKC,0.13,VWS V12.07,2013-04-16 06:14:00,
2013-04-16 01:20:00,41.9,40.6,30.04,NE,44,2.0,6.0,95,0.13,,SKC,0.13,VWS V12.07,2013-04-16 06:20:00,
2013-04-16 01:26:00,41.9,40.6,30.04,NNE,15,3.0,6.0,95,0.13,,SKC,0.13,VWS V12.07,2013-04-16 06:26:00,
2013-04-16 01:33:00,42.0,40.7,30.03,NW,308,5.0,6.0,95,0.05,,SKC,0.13,VWS V12.07,2013-04-16 06:33:00,
2013-04-16 01:39:00,42.0,40.7,30.04,NNE,19,4.0,10.0,95,0.05,,SKC,0.13,VWS V12.07,2013-04-16 06:39:00,
2013-04-16 01:45:00,42.0,40.7,30.05,NNE,15,9.0,11.0,95,0.05,,SKC,0.13,VWS V12.07,2013-04-16 06:45:00,
2013-04-16 01:51:00,41.9,40.3,30.04,NE,51,2.0,11.0,94,0.05,,SKC,0.13,VWS V12.07,2013-04-16 06:51:00,
2013-04-16 01:58:00,41.8,40.2,30.04,ENE,57,1.0,11.0,94,0.05,,SKC,0.13,VWS V12.07,2013-04-16 06:58:00,
2013-04-16 02:04:00,41.9,40.3,30.05,ENE,74,3.0,8.0,94,0.00,,SKC,0.13,VWS V12.07,2013-04-16 07:04:00,
2013-04-16 02:11:00,41.9,40.3,30.04,NE,44,3.0,8.0,94,0.00,,SKC,0.13,VWS V12.07,2013-04-16 07:11:00,
2013-04-16 02:18:00,42.0,40.4,30.06,NNW,335,2.0,8.0,94,0.00,,SKC,0.13,VWS V12.07,2013-04-16 07:18:00,
2013-04-16 02:24:00,42.3,40.7,30.09,NW,311,4.0,8.0,94,0.00,,SKC,0.14,VWS V12.07,2013-04-16 07:24:00,
2013-04-16 02:31:00,42.3,40.4,30.06,ENE,74,2.0,3.0,93,0.03,,SKC,0.16,VWS V12.07,2013-04-16 07:31:00,
2013-04-16 02:38:00,42.0,40.4,30.05,West,278,0.0,6.0,94,0.04,,SKC,0.17,VWS V12.07,2013-04-16 07:38:00,
2013-04-16 02:44:00,41.9,40.3,30.06,East,81,0.0,6.0,94,0.04,,SKC,0.17,VWS V12.07,2013-04-16 07:44:00,
2013-04-16 02:50:00,41.9,40.3,30.07,NNW,329,0.0,6.0,94,0.04,,SKC,0.17,VWS V12.07,2013-04-16 07:50:00,
2013-04-16 02:56:00,42.1,40.8,30.08,NW,319,1.0,6.0,95,0.04,,SKC,0.17,VWS V12.07,2013-04-16 07:56:00,
2013-04-16 03:03:00,42.2,40.9,30.07,NNE,33,0.0,3.0,95,0.04,,SKC,0.17,VWS V12.07,2013-04-16 08:03:00,
2013-04-16 03:08:00,42.2,40.9,30.05,ENE,63,1.0,6.0,95,0.04,,SKC,0.17,VWS V12.07,2013-04-16 08:08:00,
2013-04-16 03:14:00,42.2,40.9,30.06,NE,55,2.0,8.0,95,0.04,,SKC,0.17,VWS V12.07,2013-04-16 08:14:00,
2013-04-16 03:21:00,42.1,40.5,30.06,NW,313,0.0,8.0,94,0.04,,SKC,0.17,VWS V12.07,2013-04-16 08:21:00,
2013-04-16 03:28:00,42.0,40.4,30.07,NW,304,4.0,9.0,94,0.04,,SKC,0.17,VWS V12.07,2013-04-16 08:28:00,
2013-04-16 03:34:00,41.9,40.0,30.07,NE,53,2.0,10.0,93,0.01,,SKC,0.17,VWS V12.07,2013-04-16 08:34:00,
2013-04-16 03:41:00,41.7,39.8,30.08,North,356,2.0,10.0,93,0.01,,SKC,0.17,VWS V12.07,2013-04-16 08:41:00,
2013-04-16 03:48:00,41.7,39.8,30.10,NW,317,2.0,10.0,93,0.01,,SKC,0.17,VWS V12.07,2013-04-16 08:48:00,
2013-04-16 03:53:00,41.7,39.8,30.08,NE,44,10.0,10.0,93,0.01,,SKC,0.17,VWS V12.07,2013-04-16 08:53:00,
2013-04-16 03:59:00,41.5,39.6,30.07,NNE,16,5.0,10.0,93,0.01,,SKC,0.17,VWS V12.07,2013-04-16 08:59:00,
2013-04-16 04:06:00,41.6,39.7,30.09,NE,46,3.0,5.0,93,0.00,,SKC,0.17,VWS V12.07,2013-04-16 09:06:00,
2013-04-16 04:13:00,41.6,39.7,30.09,NNE,30,5.0,6.0,93,0.00,,SKC,0.17,VWS V12.07,2013-04-16 09:13:00,
2013-04-16 04:19:00,41.5,39.6,30.09,NE,50,4.0,7.0,93,0.00,,SKC,0.17,VWS V12.07,2013-04-16 09:19:00,
2013-04-16 04:26:00,41.6,39.7,30.10,NE,49,3.0,9.0,93,0.00,,SKC,0.17,VWS V12.07,2013-04-16 09:26:00,
2013-04-16 04:33:00,41.5,39.6,30.09,NNE,25,3.0,8.0,93,0.00,,SKC,0.17,VWS V12.07,2013-04-16 09:33:00,
2013-04-16 04:39:00,41.5,39.6,30.10,NE,38,2.0,8.0,93,0.00,,SKC,0.17,VWS V12.07,2013-04-16 09:39:00,
2013-04-16 04:46:00,41.6,39.7,30.10,North,354,2.0,10.0,93,0.00,,SKC,0.17,VWS V12.07,2013-04-16 09:46:00,
2013-04-16 04:53:00,41.6,39.7,30.09,North,357,3.0,10.0,93,0.00,,SKC,0.17,VWS V12.07,2013-04-16 09:53:00,
2013-04-16 04:59:00,41.6,39.7,30.11,NNE,19,2.0,10.0,93,0.00,,SKC,0.17,VWS V12.07,2013-04-16 09:59:00,
2013-04-16 05:06:00,41.6,39.7,30.08,NE,46,3.0,8.0,93,0.00,,SKC,0.17,VWS V12.07,2013-04-16 10:06:00,
2013-04-16 05:13:00,41.6,39.7,30.10,ENE,75,1.0,10.0,93,0.00,,SKC,0.17,VWS V12.07,2013-04-16 10:13:00,
2013-04-16 05:19:00,41.6,39.7,30.11,NNE,21,0.0,10.0,93,0.00,,SKC,0.17,VWS V12.07,2013-04-16 10:19:00,
2013-04-16 05:26:00,41.6,39.7,30.11,NE,41,5.0,10.0,93,0.00,,SKC,0.17,VWS V12.07,2013-04-16 10:26:00,
2013-04-16 05:33:00,41.7,39.8,30.12,NE,41,1.0,3.0,93,0.00,,SKC,0.17,VWS V12.07,2013-04-16 10:33:00,
2013-04-16 05:39:00,41.7,39.8,30.12,NE,45,4.0,6.0,93,0.00,,SKC,0.17,VWS V12.07,2013-04-16 10:39:00,
2013-04-16 05:46:00,41.7,39.8,30.12,ENE,69,2.0,6.0,93,0.00,,SKC,0.17,VWS V12.07,2013-04-16 10:46:00,
2013-04-16 05:53:00,41.8,39.9,30.13,NNW,334,2.0,7.0,93,0.00,,SKC,0.17,VWS V12.07,2013-04-16 10:53:00,
2013-04-16 05:59:00,41.8,39.9,30.13,NNE,26,2.0,7.0,93,0.00,,SKC,0.17,VWS V12.07,2013-04-16 10:59:00,
2013-04-16 06:06:00,41.7,39.8,30.12,NE,56,5.0,8.0,93,0.00,,SKC,0.17,VWS V12.07,2013-04-16 11:06:00,
2013-04-16 06:13:00,41.7,39.5,30.13,NNE,25,0.0,8.0,92,0.00,,SKC,0.17,VWS V12.07,2013-04-16 11:13:00,
2013-04-16 06:18:00,41.8,39.7,30.12,NNE,29,1.0,8.0,92,0.00,,SKC,0.17,VWS V12.07,2013-04-16 11:18:00,
2013-04-16 06:23:00,41.7,39.5,30.14,North,10,1.0,8.0,92,0.00,,SKC,0.17,VWS V12.07,2013-04-16 11:23:00,
2013-04-16 06:30:00,41.8,39.4,30.13,NE,53,3.0,8.0,91,0.00,,SKC,0.17,VWS V12.07,2013-04-16 11:30:00,
2013-04-16 06:35:00,41.6,39.2,30.13,NNE,32,2.0,8.0,91,0.00,,SKC,0.17,VWS V12.07,2013-04-16 11:35:00,
2013-04-16 06:40:00,41.6,39.2,30.13,NE,56,3.0,9.0,91,0.00,,SKC,0.17,VWS V12.07,2013-04-16 11:40:00,
2013-04-16 06:46:00,41.6,39.2,30.13,NNE,30,5.0,9.0,91,0.00,,SKC,0.17,VWS V12.07,2013-04-16 11:46:00,
2013-04-16 06:53:00,41.6,38.9,30.14,NNE,21,0.0,11.0,90,0.00,,SKC,0.17,VWS V12.07,2013-04-16 11:53:00,
2013-04-16 06:58:00,41.7,39.0,30.15,North,6,1.0,11.0,90,0.00,,SKC,0.17,VWS V12.07,2013-04-16 11:58:00,
2013-04-16 07:03:00,41.7,39.0,30.17,NE,50,2.0,4.0,90,0.00,,SKC,0.17,VWS V12.07,2013-04-16 12:03:00,
2013-04-16 07:08:00,41.8,39.1,30.16,NNE,23,7.0,7.0,90,0.00,,SKC,0.17,VWS V12.07,2013-04-16 12:08:00,
2013-04-16 07:14:00,41.7,39.0,30.15,NE,51,2.0,9.0,90,0.00,,SKC,0.17,VWS V12.07,2013-04-16 12:14:00,
2013-04-16 07:21:00,41.9,39.2,30.15,ENE,62,7.0,11.0,90,0.00,,SKC,0.17,VWS V12.07,2013-04-16 12:21:00,
2013-04-16 07:28:00,41.9,38.9,30.16,NNE,12,2.0,12.0,89,0.00,,SKC,0.17,VWS V12.07,2013-04-16 12:28:00,
2013-04-16 07:33:00,42.1,39.1,30.17,NE,47,2.0,5.0,89,0.00,,SKC,0.17,VWS V12.07,2013-04-16 12:33:00,
2013-04-16 07:38:00,42.1,39.4,30.17,NNE,33,3.0,9.0,90,0.00,,SKC,0.17,VWS V12.07,2013-04-16 12:38:00,
2013-04-16 07:43:00,42.2,39.5,30.18,NNW,341,3.0,9.0,90,0.00,,SKC,0.17,VWS V12.07,2013-04-16 12:43:00,
2013-04-16 07:48:00,42.3,39.3,30.20,NE,44,0.0,9.0,89,0.00,,SKC,0.17,VWS V12.07,2013-04-16 12:48:00,
2013-04-16 07:54:00,42.4,39.1,30.20,NE,49,4.0,9.0,88,0.00,,SKC,0.17,VWS V12.07,2013-04-16 12:54:00,
2013-04-16 07:59:00,42.3,39.3,30.18,NE,38,4.0,9.0,89,0.00,,SKC,0.17,VWS V12.07,2013-04-16 12:59:00,
2013-04-16 08:05:00,42.3,39.6,30.18,West,273,1.0,5.0,90,0.00,,SKC,0.17,VWS V12.07,2013-04-16 13:05:00,
2013-04-16 08:11:00,42.3,39.3,30.17,NNE,22,2.0,9.0,89,0.00,,SKC,0.17,VWS V12.07,2013-04-16 13:11:00,
2013-04-16 08:18:00,42.4,39.4,30.18,North,5,2.0,9.0,89,0.00,,SKC,0.17,VWS V12.07,2013-04-16 13:18:00,
2013-04-16 08:24:00,42.5,39.5,30.19,NE,34,3.0,9.0,89,0.00,,SKC,0.17,VWS V12.07,2013-04-16 13:24:00,
2013-04-16 08:30:00,42.8,39.8,30.18,ENE,74,2.0,9.0,89,0.00,,SKC,0.17,VWS V12.07,2013-04-16 13:30:00,
2013-04-16 08:36:00,43.1,40.1,30.17,ENE,58,2.0,10.0,89,0.00,,SKC,0.17,VWS V12.07,2013-04-16 13:36:00,
2013-04-16 08:43:00,43.2,39.9,30.18,North,349,7.0,11.0,88,0.00,,SKC,0.17,VWS V12.07,2013-04-16 13:43:00,
2013-04-16 08:49:00,42.9,39.6,30.19,ENE,58,6.0,11.0,88,0.00,,SKC,0.17,VWS V12.07,2013-04-16 13:49:00,
2013-04-16 08:55:00,42.7,39.4,30.19,NW,321,1.0,11.0,88,0.00,,SKC,0.17,VWS V12.07,2013-04-16 13:55:00,
2013-04-16 09:01:00,42.5,38.9,30.20,WNW,297,1.0,4.0,87,0.00,,SKC,0.17,VWS V12.07,2013-04-16 14:01:00,
2013-04-16 09:08:00,42.4,39.1,30.17,ENE,67,4.0,9.0,88,0.00,,SKC,0.17,VWS V12.07,2013-04-16 14:08:00,
2013-04-16 09:13:00,42.3,39.3,30.19,NNE,20,4.0,12.0,89,0.01,,SKC,0.18,VWS V12.07,2013-04-16 14:13:00,
2013-04-16 09:19:00,42.0,39.0,30.19,NNW,337,1.0,12.0,89,0.01,,SKC,0.18,VWS V12.07,2013-04-16 14:19:00,
2013-04-16 09:24:00,41.9,39.2,30.19,NW,321,2.0,12.0,90,0.01,,SKC,0.18,VWS V12.07,2013-04-16 14:24:00,
2013-04-16 09:31:00,41.8,39.1,30.20,NNE,13,0.0,0.0,90,0.01,,SKC,0.18,VWS V12.07,2013-04-16 14:31:00,
2013-04-16 09:36:00,41.7,39.3,30.22,NE,36,3.0,4.0,91,0.02,,SKC,0.19,VWS V12.07,2013-04-16 14:36:00,
2013-04-16 09:41:00,41.8,39.4,30.23,NW,319,0.0,4.0,91,0.02,,SKC,0.19,VWS V12.07,2013-04-16 14:41:00,
2013-04-16 09:46:00,41.8,39.7,30.22,NE,54,1.0,4.0,92,0.02,,SKC,0.19,VWS V12.07,2013-04-16 14:46:00,
2013-04-16 09:53:00,41.6,39.5,30.19,North,9,4.0,9.0,92,0.02,,SKC,0.19,VWS V12.07,2013-04-16 14:53:00,
2013-04-16 09:58:00,41.6,39.5,30.20,West,262,1.0,9.0,92,0.02,,SKC,0.19,VWS V12.07,2013-04-16 14:58:00,
2013-04-16 10:03:00,41.8,39.9,30.19,NW,321,0.0,5.0,93,0.03,,SKC,0.20,VWS V12.07,2013-04-16 15:03:00,
2013-04-16 10:09:00,41.9,39.8,30.20,NNW,337,1.0,7.0,92,0.03,,SKC,0.20,VWS V12.07,2013-04-16 15:09:00,
2013-04-16 10:15:00,41.7,39.5,30.18,East,82,4.0,7.0,92,0.03,,SKC,0.20,VWS V12.07,2013-04-16 15:15:00,
2013-04-16 10:21:00,41.6,39.5,30.15,ENE,67,2.0,15.0,92,0.03,,SKC,0.20,VWS V12.07,2013-04-16 15:21:00,
2013-04-16 10:28:00,41.9,40.0,30.19,NW,315,1.0,15.0,93,0.03,,SKC,0.20,VWS V12.07,2013-04-16 15:28:00,
2013-04-16 10:34:00,42.6,40.7,30.20,East,82,1.0,5.0,93,0.02,,SKC,0.20,VWS V12.07,2013-04-16 15:34:00,
2013-04-16 10:40:00,43.1,41.2,30.20,NE,40,8.0,8.0,93,0.02,,SKC,0.20,VWS V12.07,2013-04-16 15:40:00,
2013-04-16 10:46:00,43.7,41.5,30.19,NNE,30,3.0,10.0,92,0.02,,SKC,0.20,VWS V12.07,2013-04-16 15:46:00,
2013-04-16 10:53:00,44.4,41.9,30.19,SE,131,4.0,10.0,91,0.02,,SKC,0.20,VWS V12.07,2013-04-16 15:53:00,
2013-04-16 10:58:00,44.6,41.3,30.19,NNE,33,3.0,10.0,88,0.02,,SKC,0.20,VWS V12.07,2013-04-16 15:58:00,
2013-04-16 11:04:00,45.3,42.0,30.19,ENE,74,3.0,13.0,88,0.00,,SKC,0.20,VWS V12.07,2013-04-16 16:04:00,
2013-04-16 11:11:00,45.6,41.7,30.20,NE,46,6.0,13.0,86,0.00,,SKC,0.20,VWS V12.07,2013-04-16 16:11:00,
2013-04-16 11:18:00,45.2,41.3,30.20,ENE,67,12.0,13.0,86,0.00,,SKC,0.20,VWS V12.07,2013-04-16 16:18:00,
2013-04-16 11:24:00,45.2,41.3,30.20,NNE,16,3.0,13.0,86,0.00,,SKC,0.20,VWS V12.07,2013-04-16 16:24:00,
2013-04-16 11:31:00,45.4,41.8,30.17,NNE,33,13.0,14.0,87,0.00,,SKC,0.20,VWS V12.07,2013-04-16 16:31:00,
2013-04-16 11:38:00,44.8,40.0,30.18,NNE,21,3.0,14.0,83,0.00,,SKC,0.20,VWS V12.07,2013-04-16 16:38:00,
2013-04-16 11:43:00,44.6,39.1,30.19,East,98,3.0,14.0,81,0.00,,SKC,0.20,VWS V12.07,2013-04-16 16:43:00,
2013-04-16 11:49:00,44.6,39.5,30.20,East,95,2.0,14.0,82,0.00,,SKC,0.20,VWS V12.07,2013-04-16 16:49:00,
2013-04-16 11:56:00,44.7,39.9,30.20,NW,314,4.0,14.0,83,0.00,,SKC,0.20,VWS V12.07,2013-04-16 16:56:00,
2013-04-16 12:03:00,45.1,40.9,30.20,North,351,2.0,9.0,85,0.00,,SKC,0.20,VWS V12.07,2013-04-16 17:03:00,
2013-04-16 12:09:00,45.5,41.6,30.19,NNW,345,2.0,10.0,86,0.00,,SKC,0.20,VWS V12.07,2013-04-16 17:09:00,
2013-04-16 12:16:00,45.7,41.8,30.18,NE,40,3.0,10.0,86,0.00,,SKC,0.20,VWS V12.07,2013-04-16 17:16:00,
2013-04-16 12:23:00,46.6,42.0,30.18,NE,44,6.0,15.0,84,0.00,,SKC,0.20,VWS V12.07,2013-04-16 17:23:00,
2013-04-16 12:29:00,46.0,41.4,30.19,NE,40,3.0,15.0,84,0.00,,SKC,0.20,VWS V12.07,2013-04-16 17:29:00,
2013-04-16 12:36:00,45.9,40.4,30.19,NE,47,5.0,11.0,81,0.00,,SKC,0.20,VWS V12.07,2013-04-16 17:36:00,
2013-04-16 12:43:00,46.2,40.1,30.18,NE,56,6.0,11.0,79,0.00,,SKC,0.20,VWS V12.07,2013-04-16 17:43:00,
2013-04-16 12:49:00,46.4,39.9,30.18,North,5,4.0,13.0,78,0.00,,SKC,0.20,VWS V12.07,2013-04-16 17:49:00,
2013-04-16 12:56:00,46.6,39.1,30.19,NE,41,5.0,14.0,75,0.00,,SKC,0.20,VWS V12.07,2013-04-16 17:56:00,
2013-04-16 13:03:00,46.4,39.3,30.19,ENE,72,4.0,10.0,76,0.00,,SKC,0.20,VWS V12.07,2013-04-16 18:03:00,
2013-04-16 13:08:00,46.4,38.9,30.19,NNW,330,6.0,10.0,75,0.00,,SKC,0.20,VWS V12.07,2013-04-16 18:08:00,
2013-04-16 13:14:00,46.4,39.6,30.19,NNE,20,8.0,10.0,77,0.00,,SKC,0.20,VWS V12.07,2013-04-16 18:14:00,
2013-04-16 13:21:00,46.3,39.8,30.19,NE,36,6.0,11.0,78,0.00,,SKC,0.20,VWS V12.07,2013-04-16 18:21:00,
2013-04-16 13:28:00,46.2,39.7,30.18,NE,55,2.0,11.0,78,0.00,,SKC,0.20,VWS V12.07,2013-04-16 18:28:00,
2013-04-16 13:34:00,46.1,39.6,30.18,NE,41,4.0,8.0,78,0.00,,SKC,0.20,VWS V12.07,2013-04-16 18:34:00,
2013-04-16 13:40:00,46.1,40.0,30.18,ENE,75,2.0,10.0,79,0.00,,SKC,0.20,VWS V12.07,2013-04-16 18:40:00,
2013-04-16 13:46:00,46.4,40.2,30.18,NNE,29,4.0,10.0,79,0.00,,SKC,0.20,VWS V12.07,2013-04-16 18:46:00,
2013-04-16 13:53:00,46.9,40.7,30.18,ENE,71,2.0,10.0,79,0.00,,SKC,0.20,VWS V12.07,2013-04-16 18:53:00,
2013-04-16 13:58:00,47.3,40.1,30.18,NNE,19,3.0,10.0,76,0.00,,SKC,0.20,VWS V12.07,2013-04-16 18:58:00,
2013-04-16 14:04:00,47.1,38.5,30.19,ENE,72,4.0,9.0,72,0.00,,SKC,0.20,VWS V12.07,2013-04-16 19:04:00,
2013-04-16 14:14:00,47.1,38.9,30.17,NW,312,1.0,11.0,73,0.00,,SKC,0.20,VWS V12.07,2013-04-16 19:14:00,
2013-04-16 14:21:00,47.2,39.0,30.18,NE,51,3.0,12.0,73,0.00,,SKC,0.20,VWS V12.07,2013-04-16 19:21:00,
2013-04-16 14:28:00,47.2,39.3,30.18,North,8,2.0,12.0,74,0.00,,SKC,0.20,VWS V12.07,2013-04-16 19:28:00,
2013-04-16 14:34:00,47.4,39.9,30.18,NW,316,0.0,7.0,75,0.00,,SKC,0.20,VWS V12.07,2013-04-16 19:34:00,
2013-04-16 14:41:00,47.6,40.1,30.19,WNW,303,3.0,7.0,75,0.00,,SKC,0.20,VWS V12.07,2013-04-16 19:41:00,
2013-04-16 14:48:00,47.6,40.1,30.19,North,11,0.0,7.0,75,0.00,,SKC,0.20,VWS V12.07,2013-04-16 19:48:00,
2013-04-16 14:54:00,47.8,40.6,30.18,ENE,58,3.0,7.0,76,0.00,,SKC,0.20,VWS V12.07,2013-04-16 19:54:00,
2013-04-16 15:00:00,48.0,40.5,30.17,NE,49,3.0,9.0,75,0.00,,SKC,0.20,VWS V12.07,2013-04-16 20:00:00,
2013-04-16 15:09:00,48.4,40.5,30.17,NNW,335,4.0,13.0,74,0.00,,SKC,0.20,VWS V12.07,2013-04-16 20:09:00,
2013-04-16 15:17:00,48.4,40.2,30.17,ENE,63,4.0,13.0,73,0.00,,SKC,0.20,VWS V12.07,2013-04-16 20:17:00,
2013-04-16 15:23:00,48.5,40.6,30.17,NE,47,3.0,13.0,74,0.00,,SKC,0.20,VWS V12.07,2013-04-16 20:23:00,
2013-04-16 15:28:00,48.9,41.0,30.16,ESE,110,4.0,13.0,74,0.00,,SKC,0.20,VWS V12.07,2013-04-16 20:28:00,
2013-04-16 15:34:00,48.9,40.6,30.17,NE,44,6.0,11.0,73,0.00,,SKC,0.20,VWS V12.07,2013-04-16 20:34:00,
2013-04-16 15:40:00,48.7,40.1,30.17,SE,141,1.0,11.0,72,0.00,,SKC,0.20,VWS V12.07,2013-04-16 20:40:00,
2013-04-16 15:46:00,48.7,40.8,30.17,NNE,25,2.0,11.0,74,0.00,,SKC,0.20,VWS V12.07,2013-04-16 20:46:00,
2013-04-16 15:53:00,48.8,40.9,30.17,NE,56,6.0,11.0,74,0.00,,SKC,0.20,VWS V12.07,2013-04-16 20:53:00,
2013-04-16 15:59:00,48.9,41.0,30.17,NE,49,3.0,11.0,74,0.00,,SKC,0.20,VWS V12.07,2013-04-16 20:59:00,
2013-04-16 16:06:00,48.8,40.9,30.17,North,1,5.0,10.0,74,0.00,,SKC,0.20,VWS V12.07,2013-04-16 21:06:00,
2013-04-16 16:13:00,48.7,40.8,30.17,NE,45,8.0,11.0,74,0.00,,SKC,0.20,VWS V12.07,2013-04-16 21:13:00,
2013-04-16 16:18:00,48.7,40.8,30.17,ENE,73,1.0,11.0,74,0.00,,SKC,0.20,VWS V12.07,2013-04-16 21:18:00,
2013-04-16 16:24:00,48.8,40.5,30.17,NNW,345,4.0,11.0,73,0.00,,SKC,0.20,VWS V12.07,2013-04-16 21:24:00,
2013-04-16 16:31:00,48.9,40.3,30.17,ENE,62,5.0,8.0,72,0.00,,SKC,0.20,VWS V12.07,2013-04-16 21:31:00,
2013-04-16 16:38:00,49.1,40.8,30.17,NE,53,1.0,10.0,73,0.00,,SKC,0.20,VWS V12.07,2013-04-16 21:38:00,
2013-04-16 16:44:00,49.3,40.3,30.17,NNE,17,4.0,11.0,71,0.00,,SKC,0.20,VWS V12.07,2013-04-16 21:44:00,
2013-04-16 16:49:00,49.4,40.4,30.17,NE,47,3.0,12.0,71,0.00,,SKC,0.20,VWS V12.07,2013-04-16 21:49:00,
2013-04-16 16:56:00,49.4,40.8,30.17,ENE,70,8.0,12.0,72,0.00,,SKC,0.20,VWS V12.07,2013-04-16 21:56:00,
2013-04-16 17:03:00,49.4,40.8,30.17,East,86,4.0,10.0,72,0.00,,SKC,0.20,VWS V12.07,2013-04-16 22:03:00,
2013-04-16 17:09:00,49.4,41.1,30.17,NNE,20,4.0,10.0,73,0.00,,SKC,0.20,VWS V12.07,2013-04-16 22:09:00,
2013-04-16 17:22:00,49.5,41.2,30.17,NE,44,2.0,6.0,73,0.00,,SKC,0.20,VWS V12.07,2013-04-16 22:22:00,
2013-04-16 17:28:00,49.5,41.2,30.17,ENE,58,4.0,10.0,73,0.00,,SKC,0.20,VWS V12.07,2013-04-16 22:28:00,
2013-04-16 17:33:00,49.5,41.6,30.17,ENE,58,4.0,6.0,74,0.00,,SKC,0.20,VWS V12.07,2013-04-16 22:33:00,
2013-04-16 17:39:00,49.5,41.6,30.17,NE,51,2.0,9.0,74,0.00,,SKC,0.20,VWS V12.07,2013-04-16 22:39:00,
2013-04-16 17:45:00,49.5,41.6,30.17,ENE,60,2.0,9.0,74,0.00,,SKC,0.20,VWS V12.07,2013-04-16 22:45:00,
2013-04-16 17:51:00,49.7,42.1,30.17,NE,47,0.0,10.0,75,0.00,,SKC,0.20,VWS V12.07,2013-04-16 22:51:00,
2013-04-16 18:04:00,49.6,41.7,30.17,ESE,105,0.0,9.0,74,0.00,,SKC,0.20,VWS V12.07,2013-04-16 23:04:00,
2013-04-16 18:11:00,49.6,41.3,30.17,NNE,23,6.0,11.0,73,0.00,,SKC,0.20,VWS V12.07,2013-04-16 23:11:00,
2013-04-16 18:20:00,49.5,41.2,30.17,NE,37,3.0,11.0,73,0.00,,SKC,0.20,VWS V12.07,2013-04-16 23:20:00,
2013-04-16 18:26:00,49.5,41.6,30.18,ENE,60,6.0,11.0,74,0.00,,SKC,0.20,VWS V12.07,2013-04-16 23:26:00,
2013-04-16 18:33:00,49.4,41.1,30.18,NE,40,3.0,7.0,73,0.00,,SKC,0.20,VWS V12.07,2013-04-16 23:33:00,
2013-04-16 18:39:00,49.4,41.5,30.18,NNE,25,2.0,7.0,74,0.00,,SKC,0.20,VWS V12.07,2013-04-16 23:39:00,
2013-04-16 18:45:00,49.4,41.5,30.18,NE,46,2.0,8.0,74,0.00,,SKC,0.20,VWS V12.07,2013-04-16 23:45:00,
2013-04-16 18:51:00,49.4,41.5,30.18,North,353,2.0,8.0,74,0.00,,SKC,0.20,VWS V12.07,2013-04-16 23:51:00,
2013-04-16 18:58:00,49.4,41.5,30.18,ENE,58,1.0,9.0,74,0.00,,SKC,0.20,VWS V12.07,2013-04-16 23:58:00,
2013-04-16 19:03:00,49.3,41.4,30.18,NNE,22,2.0,5.0,74,0.00,,SKC,0.20,VWS V12.07,2013-04-17 00:03:00,
2013-04-16 19:09:00,49.4,41.5,30.18,NE,56,1.0,8.0,74,0.00,,SKC,0.20,VWS V12.07,2013-04-17 00:09:00,
2013-04-16 19:15:00,49.3,41.4,30.18,NNE,26,3.0,9.0,74,0.00,,SKC,0.20,VWS V12.07,2013-04-17 00:15:00,
2013-04-16 19:22:00,49.3,41.4,30.18,NNE,32,5.0,9.0,74,0.00,,SKC,0.20,VWS V12.07,2013-04-17 00:22:00,
2013-04-16 19:28:00,49.2,41.6,30.18,ESE,123,2.0,9.0,75,0.00,,SKC,0.20,VWS V12.07,2013-04-17 00:28:00,
2013-04-16 19:33:00,49.2,41.6,30.18,NE,56,3.0,6.0,75,0.00,,SKC,0.20,VWS V12.07,2013-04-17 00:33:00,
2013-04-16 19:39:00,49.2,42.0,30.17,NNE,18,0.0,7.0,76,0.00,,SKC,0.20,VWS V12.07,2013-04-17 00:39:00,
2013-04-16 19:45:00,49.1,41.5,30.17,East,94,2.0,7.0,75,0.00,,SKC,0.20,VWS V12.07,2013-04-17 00:45:00,
2013-04-16 19:51:00,49.2,42.0,30.17,ENE,71,4.0,7.0,76,0.00,,SKC,0.20,VWS V12.07,2013-04-17 00:51:00,
2013-04-16 19:58:00,49.2,42.0,30.18,East,82,2.0,8.0,76,0.00,,SKC,0.20,VWS V12.07,2013-04-17 00:58:00,
2013-04-16 20:03:00,49.1,41.9,30.17,NE,56,1.0,4.0,76,0.00,,SKC,0.20,VWS V12.07,2013-04-17 01:03:00,
2013-04-16 20:09:00,49.1,41.9,30.17,NE,53,4.0,7.0,76,0.00,,SKC,0.20,VWS V12.07,2013-04-17 01:09:00,
2013-04-16 20:16:00,49.1,41.9,30.18,NNE,17,0.0,7.0,76,0.00,,SKC,0.20,VWS V12.07,2013-04-17 01:16:00,
2013-04-16 20:23:00,49.1,42.2,30.18,NE,47,3.0,7.0,77,0.00,,SKC,0.20,VWS V12.07,2013-04-17 01:23:00,
2013-04-16 20:29:00,49.1,41.9,30.18,NNE,14,4.0,7.0,76,0.00,,SKC,0.20,VWS V12.07,2013-04-17 01:29:00,
2013-04-16 20:35:00,49.1,42.2,30.18,ENE,65,6.0,8.0,77,0.00,,SKC,0.20,VWS V12.07,2013-04-17 01:35:00,
2013-04-16 20:41:00,49.1,42.2,30.18,NE,49,2.0,8.0,77,0.00,,SKC,0.20,VWS V12.07,2013-04-17 01:41:00,
2013-04-16 20:48:00,49.2,42.0,30.19,ENE,61,3.0,8.0,76,0.00,,SKC,0.20,VWS V12.07,2013-04-17 01:48:00,
2013-04-16 20:54:00,49.2,42.0,30.19,East,95,3.0,8.0,76,0.00,,SKC,0.20,VWS V12.07,2013-04-17 01:54:00,
2013-04-16 21:00:00,49.3,42.1,30.19,ENE,72,0.0,8.0,76,0.00,,SKC,0.20,VWS V12.07,2013-04-17 02:00:00,
2013-04-16 21:06:00,49.3,42.1,30.19,East,84,0.0,6.0,76,0.00,,SKC,0.20,VWS V12.07,2013-04-17 02:06:00,
2013-04-16 21:13:00,49.3,42.1,30.19,ESE,110,1.0,6.0,76,0.00,,SKC,0.20,VWS V12.07,2013-04-17 02:13:00,
2013-04-16 21:18:00,49.3,42.1,30.19,ENE,69,3.0,6.0,76,0.00,,SKC,0.20,VWS V12.07,2013-04-17 02:18:00,
2013-04-16 21:24:00,49.4,42.2,30.19,NE,51,4.0,7.0,76,0.00,,SKC,0.20,VWS V12.07,2013-04-17 02:24:00,
2013-04-16 21:31:00,49.3,42.4,30.19,East,89,3.0,3.0,77,0.00,,SKC,0.20,VWS V12.07,2013-04-17 02:31:00,
2013-04-16 21:38:00,49.3,42.4,30.19,East,84,2.0,6.0,77,0.00,,SKC,0.20,VWS V12.07,2013-04-17 02:38:00,
2013-04-16 21:44:00,49.2,42.3,30.19,SE,145,0.0,6.0,77,0.00,,SKC,0.20,VWS V12.07,2013-04-17 02:44:00,
2013-04-16 21:51:00,49.2,42.3,30.19,ENE,75,3.0,7.0,77,0.00,,SKC,0.20,VWS V12.07,2013-04-17 02:51:00,
2013-04-16 21:58:00,49.2,42.3,30.19,ENE,72,1.0,8.0,77,0.00,,SKC,0.20,VWS V12.07,2013-04-17 02:58:00,
2013-04-16 22:04:00,49.3,42.1,30.19,East,89,6.0,6.0,76,0.00,,SKC,0.20,VWS V12.07,2013-04-17 03:04:00,
2013-04-16 22:11:00,49.3,42.1,30.19,ENE,75,1.0,6.0,76,0.00,,SKC,0.20,VWS V12.07,2013-04-17 03:11:00,
2013-04-16 22:18:00,49.4,41.8,30.19,East,98,1.0,9.0,75,0.00,,SKC,0.20,VWS V12.07,2013-04-17 03:18:00,
2013-04-16 22:24:00,49.5,41.9,30.19,ENE,77,2.0,9.0,75,0.00,,SKC,0.20,VWS V12.07,2013-04-17 03:24:00,
2013-04-16 22:30:00,49.5,41.9,30.19,East,96,1.0,9.0,75,0.00,,SKC,0.20,VWS V12.07,2013-04-17 03:30:00,
2013-04-16 22:36:00,49.5,41.9,30.19,ESE,103,4.0,4.0,75,0.00,,SKC,0.20,VWS V12.07,2013-04-17 03:36:00,
2013-04-16 22:43:00,49.4,41.8,30.19,ENE,68,5.0,6.0,75,0.00,,SKC,0.20,VWS V12.07,2013-04-17 03:43:00,
2013-04-16 22:49:00,49.5,41.9,30.18,East,100,4.0,8.0,75,0.00,,SKC,0.20,VWS V12.07,2013-04-17 03:49:00,
2013-04-16 22:56:00,49.4,41.8,30.19,NE,56,2.0,8.0,75,0.00,,SKC,0.20,VWS V12.07,2013-04-17 03:56:00,
2013-04-16 23:03:00,49.4,41.8,30.19,East,96,1.0,5.0,75,0.00,,SKC,0.20,VWS V12.07,2013-04-17 04:03:00,
2013-04-16 23:09:00,49.4,42.2,30.19,NNE,19,1.0,5.0,76,0.00,,SKC,0.20,VWS V12.07,2013-04-17 04:09:00,
2013-04-16 23:13:00,49.4,41.8,30.20,ESE,102,0.0,5.0,75,0.00,,SKC,0.20,VWS V12.07,2013-04-17 04:13:00,
2013-04-16 23:19:00,49.4,42.2,30.19,ENE,75,2.0,8.0,76,0.00,,SKC,0.20,VWS V12.07,2013-04-17 04:19:00,
2013-04-16 23:25:00,49.5,42.3,30.19,ESE,112,0.0,8.0,76,0.00,,SKC,0.20,VWS V12.07,2013-04-17 04:25:00,
2013-04-16 23:28:00,49.5,42.3,30.19,ESE,116,1.0,8.0,76,0.00,,SKC,0.20,VWS V12.07,2013-04-17 04:28:00,
2013-04-16 23:34:00,49.5,42.3,30.19,ESE,103,3.0,5.0,76,0.00,,SKC,0.20,VWS V12.07,2013-04-17 04:34:00,
2013-04-16 23:41:00,49.5,42.3,30.19,ESE,119,3.0,7.0,76,0.00,,SKC,0.20,VWS V12.07,2013-04-17 04:41:00,
2013-04-16 23:48:00,49.5,42.3,30.19,East,97,4.0,7.0,76,0.00,,SKC,0.20,VWS V12.07,2013-04-17 04:48:00,
2013-04-16 23:54:00,49.5,42.3,30.18,ENE,75,2.0,7.0,76,0.00,,SKC,0.20,VWS V12.07,2013-04-17 04:54:00,